Darstellungsparameter: Aktuell verwendete Einstellungen:
Skalierung der Graphiken ... ?
xyx+y,   Skalierungsfaktor:      Skalierung: Modus: x, Faktor: 1
Darstellungszeitraum ... ?
Vom - - bis: - -   Zeitraum: 17.11.2011 - 17.11.2011
Min/Max/Avg-Anzeige ... ?
Zeige MMA aktuell
Zeige MMA Monat
Zeige MMA alles
Zeige --A aktuell
Zeige --A Monat
Zeige --A alles
Keine MMA-Anzeige
MMA:
Average (ber die Originaldaten)
MMA-Basis: 17.11.2011 - 17.11.2011
Quicknavigation für Darstellung... ?
Tage:      1T, 2T, 3T, 5T -1T -2T -3T -5T +1T +2T +3T +5T
Wochen: 1W, 2W, 3W -1W -2W -3W +1W +2W +3W
Monate: 1M, 3M, 6M -1M -3M -6M +1M +3M +6M
Jahre:    1J, 3J, 5J, 10J -1J -3J -5J -10J +1J +3J +5J +10J
Nutze für die Darstellung ... ?
Originaldaten oder Mittelwerte auf ...
Stundenbasis Tagesbasis Wochenbasis
Monatsbasis Jahresbasis      Datenbasis: Original-Daten
Darstellen als:
Statistik (Auto) Statistik J:M      Darstellung:
Zur Graphik,    zurück zur Übersicht aller Sensoren.
 
Tabellarische Datenbersicht: ?
 
Sensor: Nr:Datum:Temp:Abs-Feuchte:Windchill:Wind:
Aussen-T/F 1 17-11-2011 00:03:01 0.9 C 4.85 g/m*3 0.9 C 0 km/h
2 17-11-2011 00:15:01 0.9 C 4.85 g/m*3 0.9 C 0 km/h
3 17-11-2011 00:27:01 1.5 C 4.99 g/m*3 1.5 C 0 km/h
4 17-11-2011 00:38:02 1 C 4.83 g/m*3 1 C 0 km/h
5 17-11-2011 00:51:01 1 C 4.83 g/m*3 1 C 0 km/h
6 17-11-2011 01:02:02 1 C 4.83 g/m*3 1 C 0 km/h
7 17-11-2011 01:14:02 1 C 4.83 g/m*3 1 C 0 km/h
8 17-11-2011 01:27:01 1 C 4.83 g/m*3 1 C 0 km/h
9 17-11-2011 01:38:02 1 C 4.83 g/m*3 1 C 0 km/h
10 17-11-2011 01:51:01 1 C 4.83 g/m*3 1 C 0 km/h
11 17-11-2011 02:14:02 1 C 4.83 g/m*3 1 C 0 km/h
12 17-11-2011 02:15:01 1 C 4.78 g/m*3 1 C 0 km/h
13 17-11-2011 02:27:01 1 C 4.78 g/m*3 1 C 0 km/h
14 17-11-2011 02:39:01 1 C 4.78 g/m*3 1 C 0 km/h
15 17-11-2011 02:51:03 1.1 C 4.81 g/m*3 1.1 C 0 km/h
16 17-11-2011 03:03:03 1.1 C 4.81 g/m*3 1.1 C 0 km/h
17 17-11-2011 03:15:03 1.2 C 4.79 g/m*3 1.2 C 0 km/h
18 17-11-2011 03:27:03 1.1 C 4.76 g/m*3 1.1 C 0 km/h
19 17-11-2011 03:39:01 1.1 C 4.76 g/m*3 1.1 C 0 km/h
20 17-11-2011 03:51:01 1.2 C 4.74 g/m*3 1.2 C 0 km/h
21 17-11-2011 04:03:02 1.2 C 4.68 g/m*3 1.2 C 0 km/h
22 17-11-2011 04:15:01 1.1 C 4.6 g/m*3 1.1 C 0 km/h
23 17-11-2011 04:27:01 1.1 C 4.55 g/m*3 1.1 C 0 km/h
24 17-11-2011 04:39:02 1.1 C 4.49 g/m*3 1.1 C 0 km/h
25 17-11-2011 04:51:01 1.1 C 4.49 g/m*3 1.1 C 0 km/h
Sensor: Nr:Datum:Temp:Abs-Feuchte:Windchill:Wind:
Aussen-T/F 26 17-11-2011 05:03:02 1.1 C 4.44 g/m*3 1.1 C 0 km/h
27 17-11-2011 05:15:01 1.1 C 4.39 g/m*3 1.1 C 0 km/h
28 17-11-2011 05:27:01 1.1 C 4.39 g/m*3 1.1 C 0 km/h
29 17-11-2011 05:39:02 1 C 4.36 g/m*3 1 C 0 km/h
30 17-11-2011 05:51:01 1 C 4.36 g/m*3 1 C 0 km/h
31 17-11-2011 06:03:02 1 C 4.31 g/m*3 1 C 0 km/h
32 17-11-2011 06:15:02 1 C 4.31 g/m*3 1 C 0 km/h
33 17-11-2011 06:27:02 0.9 C 4.33 g/m*3 0.9 C 0 km/h
34 17-11-2011 06:39:01 0.9 C 4.33 g/m*3 0.9 C 0 km/h
35 17-11-2011 06:51:02 1 C 4.36 g/m*3 1 C 0 km/h
36 17-11-2011 07:03:01 1 C 4.36 g/m*3 1 C 0 km/h
37 17-11-2011 07:15:02 1 C 4.36 g/m*3 1 C 0 km/h
38 17-11-2011 07:27:03 1.1 C 4.39 g/m*3 1.1 C 0 km/h
39 17-11-2011 07:39:01 1.1 C 4.39 g/m*3 1.1 C 0 km/h
40 17-11-2011 07:51:02 1.2 C 4.47 g/m*3 1.2 C 0 km/h
41 17-11-2011 08:03:02 1.4 C 4.53 g/m*3 1.4 C 0 km/h
42 17-11-2011 08:15:02 1.3 C 4.5 g/m*3 1.3 C 0 km/h
43 17-11-2011 08:27:02 1.4 C 4.53 g/m*3 1.4 C 0 km/h
44 17-11-2011 08:39:02 1.6 C 4.6 g/m*3 1.6 C 0 km/h
45 17-11-2011 08:51:01 1.8 C 4.66 g/m*3 1.8 C 0 km/h
46 17-11-2011 09:03:02 2.1 C 4.7 g/m*3 2.1 C 0 km/h
47 17-11-2011 09:15:01 2.2 C 4.68 g/m*3 2.2 C 0 km/h
48 17-11-2011 09:27:01 2.5 C 4.77 g/m*3 2.5 C 0 km/h
49 17-11-2011 09:39:02 2.6 C 4.8 g/m*3 2.6 C 0 km/h
50 17-11-2011 09:51:01 2.9 C 4.84 g/m*3 2.9 C 0 km/h
Sensor: Nr:Datum:Temp:Abs-Feuchte:Windchill:Wind:
Aussen-T/F 51 17-11-2011 10:03:02 3.1 C 4.79 g/m*3 3.1 C 0 km/h
52 17-11-2011 10:15:01 3.3 C 4.79 g/m*3 3.3 C 0 km/h
53 17-11-2011 10:27:01 3.1 C 4.67 g/m*3 3.1 C 0 km/h
54 17-11-2011 10:39:02 3.2 C 4.7 g/m*3 3.2 C 0 km/h
55 17-11-2011 10:51:01 3.6 C 4.77 g/m*3 3.6 C 0 km/h
56 17-11-2011 11:03:02 3.8 C 4.77 g/m*3 3.8 C 0 km/h
57 17-11-2011 11:15:02 4 C 4.7 g/m*3 4 C 0 km/h
58 17-11-2011 11:27:02 4.5 C 4.73 g/m*3 4.5 C 0 km/h
59 17-11-2011 11:39:01 4.8 C 4.69 g/m*3 4.8 C 0 km/h
60 17-11-2011 11:51:02 4.5 C 4.54 g/m*3 4.5 C 0 km/h
61 17-11-2011 12:03:01 3.8 C 4.58 g/m*3 3.8 C 0 km/h
62 17-11-2011 12:15:02 3.7 C 4.74 g/m*3 3.7 C 0 km/h
63 17-11-2011 12:27:02 4.2 C 4.9 g/m*3 4.2 C 0 km/h
64 17-11-2011 12:39:01 4.5 C 5 g/m*3 4.5 C 0 km/h
65 17-11-2011 12:51:03 5 C 4.82 g/m*3 5 C 0 km/h
66 17-11-2011 13:03:02 6 C 4.86 g/m*3 6 C 0 km/h
67 17-11-2011 13:15:02 6.1 C 4.75 g/m*3 6.1 C 0 km/h
68 17-11-2011 13:27:02 6.7 C 4.79 g/m*3 6.7 C 0 km/h
69 17-11-2011 13:39:03 6.9 C 4.85 g/m*3 6.9 C 0 km/h
70 17-11-2011 13:51:02 6.9 C 4.77 g/m*3 6.9 C 0 km/h
71 17-11-2011 14:03:02 7.2 C 4.71 g/m*3 7.2 C 0 km/h
72 17-11-2011 14:15:02 7.4 C 4.85 g/m*3 7.4 C 0 km/h
73 17-11-2011 14:27:02 7.3 C 4.82 g/m*3 7.3 C 0 km/h
74 17-11-2011 14:39:02 7.5 C 4.88 g/m*3 7.5 C 0 km/h
75 17-11-2011 14:51:02 7.6 C 4.99 g/m*3 7.6 C 0 km/h
Sensor: Nr:Datum:Temp:Abs-Feuchte:Windchill:Wind:
Aussen-T/F 76 17-11-2011 15:03:02 7.4 C 4.85 g/m*3 7.4 C 0 km/h
77 17-11-2011 15:15:02 7.3 C 4.98 g/m*3 7.3 C 0 km/h
78 17-11-2011 15:27:02 7.1 C 5.23 g/m*3 7.1 C 0 km/h
79 17-11-2011 15:39:02 6.9 C 5.39 g/m*3 6.9 C 0 km/h
80 17-11-2011 15:51:02 6.7 C 5.47 g/m*3 6.7 C 0 km/h
81 17-11-2011 16:03:02 6.5 C 5.47 g/m*3 6.5 C 0 km/h
82 17-11-2011 16:15:03 6.3 C 5.48 g/m*3 6.3 C 0 km/h
83 17-11-2011 16:27:03 6.1 C 5.48 g/m*3 6.1 C 0 km/h
84 17-11-2011 16:39:02 6.1 C 5.55 g/m*3 6.1 C 0 km/h
85 17-11-2011 16:51:02 5.9 C 5.62 g/m*3 5.9 C 0 km/h
86 17-11-2011 17:03:04 5.9 C 5.7 g/m*3 5.9 C 0 km/h
87 17-11-2011 17:15:02 5.9 C 5.7 g/m*3 5.9 C 0 km/h
88 17-11-2011 17:27:02 6.2 C 5.74 g/m*3 6.2 C 0 km/h
89 17-11-2011 17:39:02 6.1 C 5.7 g/m*3 6.1 C 0 km/h
90 17-11-2011 17:51:02 5.9 C 5.7 g/m*3 5.9 C 0 km/h
91 17-11-2011 18:03:02 5.9 C 5.7 g/m*3 5.9 C 0 km/h
92 17-11-2011 18:15:01 6 C 5.73 g/m*3 6 C 0 km/h
93 17-11-2011 18:27:01 6.1 C 5.7 g/m*3 6.1 C 0 km/h
94 17-11-2011 18:39:02 6.1 C 5.63 g/m*3 6.1 C 0 km/h
95 17-11-2011 18:51:02 6.1 C 5.7 g/m*3 6.1 C 0 km/h
96 17-11-2011 19:03:02 6.1 C 5.7 g/m*3 6.1 C 0 km/h
97 17-11-2011 19:15:02 6 C 5.66 g/m*3 6 C 0 km/h
98 17-11-2011 19:27:02 6.1 C 5.63 g/m*3 6.1 C 0 km/h
99 17-11-2011 19:39:02 6.1 C 5.63 g/m*3 6.1 C 0 km/h
100 17-11-2011 19:51:02 6.1 C 5.7 g/m*3 6.1 C 0 km/h
Sensor: Nr:Datum:Temp:Abs-Feuchte:Windchill:Wind:
Aussen-T/F 101 17-11-2011 20:03:02 6.2 C 5.74 g/m*3 6.2 C 0 km/h
102 17-11-2011 20:15:03 6.6 C 5.89 g/m*3 6.6 C 0 km/h
103 17-11-2011 20:27:03 6.7 C 5.77 g/m*3 6.7 C 0 km/h
104 17-11-2011 20:39:03 6.6 C 5.74 g/m*3 6.6 C 0 km/h
105 17-11-2011 20:51:02 6.5 C 5.77 g/m*3 6.5 C 0 km/h
106 17-11-2011 21:03:02 6.3 C 5.77 g/m*3 6.3 C 0 km/h
107 17-11-2011 21:15:02 6.3 C 5.85 g/m*3 6.3 C 0 km/h
108 17-11-2011 21:27:02 6.2 C 5.88 g/m*3 6.2 C 0 km/h
109 17-11-2011 21:39:02 6.2 C 5.96 g/m*3 6.2 C 0 km/h
110 17-11-2011 21:52:04 6 C 5.88 g/m*3 6 C 0 km/h
111 17-11-2011 22:04:04 6.1 C 5.99 g/m*3 6.1 C 0 km/h
112 17-11-2011 22:16:04 5.8 C 5.95 g/m*3 5.8 C 0 km/h
113 17-11-2011 22:28:04 5.8 C 5.95 g/m*3 5.8 C 0 km/h
114 17-11-2011 22:40:04 5.8 C 6.02 g/m*3 5.8 C 0 km/h
115 17-11-2011 22:52:05 5.7 C 6.05 g/m*3 5.7 C 0 km/h
116 17-11-2011 23:04:05 6 C 6.1 g/m*3 6 C 0 km/h
117 17-11-2011 23:16:05 6.4 C 6.26 g/m*3 6.4 C 0 km/h
118 17-11-2011 23:28:05 6.5 C 6.22 g/m*3 6.5 C 0 km/h
119 17-11-2011 23:40:05 6.5 C 6.15 g/m*3 6.5 C 0 km/h
120 17-11-2011 23:52:05 6.4 C 6.11 g/m*3 6.4 C 0 km/h

Legende:
   Min
   Max


Maximal/Minimal-Werte vom 17.11.2011 - 17.11.2011

Sensor Min Max Avg
Temp
(Aussen-T/F)
0.9 °C
17-11-2011  00:03:01
7.6 °C
17-11-2011  14:51:02
3.94 °C
Abs-Feuchte
(Aussen-T/F)
4.31 g/m*3
17-11-2011  06:03:02
6.26 g/m*3
17-11-2011  23:16:05
5.03 g/m*3
Windchill
(Aussen-T/F)
0.9 C
17-11-2011  00:03:01
7.6 C
17-11-2011  14:51:02
3.9 C

Die Daten stammen von einer Davis Vantage Pro 2 Wetter-Station und werden unter Linux mit der Software wview2wettercgi und aufbereitet. Alle Angaben erfolgen ohne Gewähr für ihre Vollständigkeit oder Richtigkeit.
Kontakt: Rainer Krienke krienke@uni-koblenz.de . Meine Webseiten an der Uni Koblenz oder privat.
Version: $Revision: 0.78 $